This demonstration page uses our WeatherBlox Daily Observations layout. Learn more.

Left ArrowRight Arrow

39.29038, -76.61219

Hourly Observations for June 25, 2020

Temp ( °F °C ) Dew Point ( °F °C ) Humidity (%) Winds ( mph kmh ) Pressure ( in mb ) Visibility ( mi km ) Precip ( " mm )
12:54 am 00:54 Cloudy 71 21.7 61 16.1 71 71 Calm 29.89 1012 10 16 0.00 0.00
1:54 am 01:54 Cloudy 71 21.7 61 16.1 71 71 Calm 29.90 1012 10 16 0.00 0.00
2:54 am 02:54 Mostly Cloudy 69 20.6 61 16.1 76 76 WSW 3 6 29.91 1013 10 16 0.00 0.00
3:54 am 03:54 Mostly Cloudy 68 20 61 16.1 78 78 Calm 29.90 1013 10 16 0.00 0.00
4:54 am 04:54 Mostly Cloudy 69 20.6 61 16.1 76 76 Calm 29.92 1013 10 16 0.00 0.00
5:54 am 05:54 Mostly Cloudy 67 19.4 61 16.1 81 81 Calm 29.93 1014 10 16 0.00 0.00
6:54 am 06:54 Cloudy 68 20 62 16.7 81 81 Calm 29.96 1014 10 16 0.00 0.00
7:54 am 07:54 Mostly Cloudy 73 22.8 62 16.7 69 69 NW 3 6 29.97 1015 10 16 0.00 0.00
8:54 am 08:54 Mostly Cloudy 79 26.1 61 16.1 54 54 Calm 29.98 1015 10 16 0.00 0.00
9:54 am 09:54 Mostly Cloudy 81 27.2 57 13.9 44 44 NNE 6 9 29.98 1015 10 16 0.00 0.00
10:54 am 10:54 Mostly Cloudy 83 28.3 58 14.4 43 43 NE 3 6 29.98 1015 10 16 0.00 0.00
11:54 am 11:54 Mostly Cloudy 83 28.3 56 13.3 40 40 Calm 29.99 1016 10 16 0.00 0.00
12:54 pm 12:54 Mostly Cloudy 85 29.4 58 14.4 40 40 N 6 9 29.98 1015 10 16 0.00 0.00
1:54 pm 13:54 Mostly Cloudy 84 28.9 58 14.4 41 41 VRB 5 7 29.98 1015 10 16 0.00 0.00
2:54 pm 14:54 Mostly Cloudy 83 28.3 59 15 44 44 SSE 6 9 29.96 1014 10 16 0.00 0.00
3:54 pm 15:54 Mostly Cloudy 82 27.8 63 17.2 53 53 S 7 11 29.95 1014 10 16 0.00 0.00
4:54 pm 16:54 Mostly Cloudy 81 27.2 63 17.2 54 54 SSE 9 15 29.95 1014 10 16 0.00 0.00
5:54 pm 17:54 Partly Cloudy 79 26.1 62 16.7 56 56 SE 9 15 29.93 1013 10 16 0.00 0.00
6:54 pm 18:54 Mostly Cloudy 76 24.4 63 17.2 64 64 NW 3 6 29.95 1014 10 16 0.00 0.00
7:05 pm 19:05 Mostly Cloudy with Thunderstorms 76 24.4 63 17.2 64 64 Calm 29.94 1014 10 16 0.00 0.00
7:38 pm 19:38 Cloudy with Thunderstorms 71 21.7 66 18.9 84 84 SE 6 9 29.97 1015 2 3 0.06 1.52
7:46 pm 19:46 Mostly Cloudy with Thunderstorms 71 21.7 65 18.3 81 81 ESE 15 24 29.94 1014 5 8 0.16 4.06
7:54 pm 19:54 Mostly Cloudy with Thunderstorms 70 21.1 64 17.8 82 82 SSE 9 15 29.94 1014 8 13 0.17 4.32
8:17 pm 20:17 Partly Cloudy 70 21.1 64 17.8 82 82 SSE 3 6 29.94 1014 10 16 0.00 0.00
8:54 pm 20:54 Partly Cloudy 69 20.6 64 17.8 84 84 S 7 11 29.95 1014 10 16 0.00 0.00
9:54 pm 21:54 Partly Cloudy 67 19.4 63 17.2 87 87 WSW 7 11 29.97 1015 10 16 0.00 0.00
10:54 pm 22:54 Mostly Clear 66 18.9 64 17.8 93 93 Calm 29.98 1015 10 16 0.00 0.00
11:54 pm 23:54 Partly Cloudy 66 18.9 64 17.8 93 93 WNW 14 22 30.00 1016 10 16 0.00 0.00

Powered by AerisWeather